owner,sensor,date,latitude,longitude,vertical_datum,wind_speed,wind_to_direction,wind_speed_of_gust,qcFlag 
WAVCIS,ioos:station:WAVCIS:CSI03:3,2009-02-01T00:00:00Z,29.4412,-92.0613,10.0,2.6,262.0,,'11111222,11111222,99999999' 
WAVCIS,ioos:station:WAVCIS:CSI03:3,2009-02-01T01:00:00Z,29.4412,-92.0613,10.0,2.895,261.0,,'11111222,11111222,99999999' 
WAVCIS,ioos:station:WAVCIS:CSI03:3,2009-02-01T02:00:00Z,29.4412,-92.0613,10.0,2.338,259.0,,'11111222,11111222,99999999' 
WAVCIS,ioos:station:WAVCIS:CSI03:3,2009-02-01T03:00:00Z,29.4412,-92.0613,10.0,0.533,257.0,,'11111222,11111222,99999999' 
WAVCIS,ioos:station:WAVCIS:CSI03:3,2009-02-01T04:00:00Z,29.4412,-92.0613,10.0,0.565,256.0,,'11111222,11111222,99999999' 
WAVCIS,ioos:station:WAVCIS:CSI03:3,2009-02-01T05:00:00Z,29.4412,-92.0613,10.0,0.315,256.0,,'11111222,11111222,99999999' 
WAVCIS,ioos:station:WAVCIS:CSI03:3,2009-02-01T06:00:00Z,29.4412,-92.0613,10.0,4.484,168.0,,'11111222,11111222,99999999' 
WAVCIS,ioos:station:WAVCIS:CSI03:3,2009-02-01T07:00:00Z,29.4412,-92.0613,10.0,5.607,164.0,,'11111222,11111222,99999999' 
WAVCIS,ioos:station:WAVCIS:CSI03:3,2009-02-01T08:00:00Z,29.4412,-92.0613,10.0,5.456,156.0,,'11111222,11111222,99999999' 
WAVCIS,ioos:station:WAVCIS:CSI03:3,2009-02-01T09:00:00Z,29.4412,-92.0613,10.0,6.22,156.0,,'11111222,11111222,99999999' 
WAVCIS,ioos:station:WAVCIS:CSI03:3,2009-02-01T10:00:00Z,29.4412,-92.0613,10.0,5.422,153.0,,'11111222,11111222,99999999' 
WAVCIS,ioos:station:WAVCIS:CSI03:3,2009-02-01T11:00:00Z,29.4412,-92.0613,10.0,5.259,148.0,,'11111222,11111222,99999999' 
WAVCIS,ioos:station:WAVCIS:CSI03:3,2009-02-01T12:00:00Z,29.4412,-92.0613,10.0,6.244,150.0,,'11111222,11111222,99999999' 
WAVCIS,ioos:station:WAVCIS:CSI03:3,2009-02-01T13:00:00Z,29.4412,-92.0613,10.0,6.512,136.0,,'11111222,11111222,99999999' 
WAVCIS,ioos:station:WAVCIS:CSI03:3,2009-02-01T14:00:00Z,29.4412,-92.0613,10.0,7.72,136.0,,'11111222,11111222,99999999' 
WAVCIS,ioos:station:WAVCIS:CSI03:3,2009-02-01T15:00:00Z,29.4412,-92.0613,10.0,7.61,135.0,,'11111222,11111222,99999999' 
WAVCIS,ioos:station:WAVCIS:CSI03:3,2009-02-01T16:00:00Z,29.4412,-92.0613,10.0,7.86,133.0,,'11111222,11111222,99999999' 
WAVCIS,ioos:station:WAVCIS:CSI03:3,2009-02-01T17:00:00Z,29.4412,-92.0613,10.0,7.88,140.0,,'11111222,11111222,99999999' 
WAVCIS,ioos:station:WAVCIS:CSI03:3,2009-02-01T18:00:00Z,29.4412,-92.0613,10.0,7.93,138.0,,'11111222,11111222,99999999' 
WAVCIS,ioos:station:WAVCIS:CSI03:3,2009-02-01T19:00:00Z,29.4412,-92.0613,10.0,7.42,147.0,,'11111222,11111222,99999999' 
WAVCIS,ioos:station:WAVCIS:CSI03:3,2009-02-01T20:00:00Z,29.4412,-92.0613,10.0,7.5,148.0,,'11111222,11111222,99999999' 
WAVCIS,ioos:station:WAVCIS:CSI03:3,2009-02-01T21:00:00Z,29.4412,-92.0613,10.0,6.84,145.0,,'11111222,11111222,99999999' 
WAVCIS,ioos:station:WAVCIS:CSI03:3,2009-02-01T22:00:00Z,29.4412,-92.0613,10.0,5.407,143.0,,'11111222,11111222,99999999' 
WAVCIS,ioos:station:WAVCIS:CSI03:3,2009-02-01T23:00:00Z,29.4412,-92.0613,10.0,7.1,137.0,,'11111222,11111222,99999999' 
WAVCIS,ioos:station:WAVCIS:CSI03:3,2009-02-02T00:00:00Z,29.4412,-92.0613,10.0,8.02,131.0,,'11111222,11111222,99999999' 
WAVCIS,ioos:station:WAVCIS:CSI03:3,2009-02-02T01:00:00Z,29.4412,-92.0613,10.0,7.51,127.0,,'11111222,11111222,99999999' 
WAVCIS,ioos:station:WAVCIS:CSI03:3,2009-02-02T02:00:00Z,29.4412,-92.0613,10.0,6.862,138.0,,'11111222,11111222,99999999' 
WAVCIS,ioos:station:WAVCIS:CSI03:3,2009-02-02T03:00:00Z,29.4412,-92.0613,10.0,5.85,136.0,,'11111222,11111222,99999999' 
WAVCIS,ioos:station:WAVCIS:CSI03:3,2009-02-02T04:00:00Z,29.4412,-92.0613,10.0,5.318,144.0,,'11111222,11111222,99999999' 
WAVCIS,ioos:station:WAVCIS:CSI03:3,2009-02-02T05:00:00Z,29.4412,-92.0613,10.0,5.755,142.0,,'11111222,11111222,99999999' 
WAVCIS,ioos:station:WAVCIS:CSI03:3,2009-02-02T06:00:00Z,29.4412,-92.0613,10.0,4.112,119.0,,'11111222,11111222,99999999' 
WAVCIS,ioos:station:WAVCIS:CSI03:3,2009-02-02T07:00:00Z,29.4412,-92.0613,10.0,5.535,78.0,,'11111222,11111222,99999999' 
WAVCIS,ioos:station:WAVCIS:CSI03:3,2009-02-02T08:00:00Z,29.4412,-92.0613,10.0,3.955,78.0,,'11111222,11111222,99999999' 
WAVCIS,ioos:station:WAVCIS:CSI03:3,2009-02-02T09:00:00Z,29.4412,-92.0613,10.0,5.909,145.0,,'11111222,11111222,99999999' 
WAVCIS,ioos:station:WAVCIS:CSI03:3,2009-02-02T10:00:00Z,29.4412,-92.0613,10.0,4.766,159.0,,'11111222,11111222,99999999' 
WAVCIS,ioos:station:WAVCIS:CSI03:3,2009-02-02T11:00:00Z,29.4412,-92.0613,10.0,2.297,199.0,,'11111222,11111222,99999999' 
WAVCIS,ioos:station:WAVCIS:CSI03:3,2009-02-02T12:00:00Z,29.4412,-92.0613,10.0,9.6,354.0,,'11111222,11111222,99999999' 
WAVCIS,ioos:station:WAVCIS:CSI03:3,2009-02-02T13:00:00Z,29.4412,-92.0613,10.0,6.99,20.0,,'11111222,11111222,99999999' 
WAVCIS,ioos:station:WAVCIS:CSI03:3,2009-02-02T14:00:00Z,29.4412,-92.0613,10.0,5.007,73.0,,'11111222,11111222,99999999' 
WAVCIS,ioos:station:WAVCIS:CSI03:3,2009-02-02T15:00:00Z,29.4412,-92.0613,10.0,5.148,11.0,,'11111222,11111222,99999999' 
WAVCIS,ioos:station:WAVCIS:CSI03:3,2009-02-02T16:00:00Z,29.4412,-92.0613,10.0,7.9,13.0,,'11111222,11111222,99999999' 
WAVCIS,ioos:station:WAVCIS:CSI03:3,2009-02-02T17:00:00Z,29.4412,-92.0613,10.0,8.07,12.0,,'11111222,11111222,99999999' 
WAVCIS,ioos:station:WAVCIS:CSI03:3,2009-02-02T18:00:00Z,29.4412,-92.0613,10.0,8.73,18.0,,'11111222,11111222,99999999' 
WAVCIS,ioos:station:WAVCIS:CSI03:3,2009-02-02T19:00:00Z,29.4412,-92.0613,10.0,10.44,12.0,,'11111222,11111222,99999999' 
WAVCIS,ioos:station:WAVCIS:CSI03:3,2009-02-02T20:00:00Z,29.4412,-92.0613,10.0,9.57,26.0,,'11111222,11111222,99999999' 
WAVCIS,ioos:station:WAVCIS:CSI03:3,2009-02-02T21:00:00Z,29.4412,-92.0613,10.0,9.55,20.0,,'11111222,11111222,99999999' 
WAVCIS,ioos:station:WAVCIS:CSI03:3,2009-02-02T22:00:00Z,29.4412,-92.0613,10.0,8.68,18.0,,'11111222,11111222,99999999' 
WAVCIS,ioos:station:WAVCIS:CSI03:3,2009-02-02T23:00:00Z,29.4412,-92.0613,10.0,8.34,20.0,,'11111222,11111222,99999999' 
WAVCIS,ioos:station:WAVCIS:CSI03:3,2009-02-03T00:00:00Z,29.4412,-92.0613,10.0,8.66,15.0,,'11111222,11111222,99999999' 
WAVCIS,ioos:station:WAVCIS:CSI03:3,2009-02-03T01:00:00Z,29.4412,-92.0613,10.0,8.89,4.0,,'11111222,11111222,99999999' 
WAVCIS,ioos:station:WAVCIS:CSI03:3,2009-02-03T02:00:00Z,29.4412,-92.0613,10.0,8.69,11.0,,'11111222,11111222,99999999' 
WAVCIS,ioos:station:WAVCIS:CSI03:3,2009-02-03T03:00:00Z,29.4412,-92.0613,10.0,7.54,21.0,,'11111222,11111222,99999999' 
WAVCIS,ioos:station:WAVCIS:CSI03:3,2009-02-03T04:00:00Z,29.4412,-92.0613,10.0,5.317,35.0,,'11111222,11111222,99999999' 
WAVCIS,ioos:station:WAVCIS:CSI03:3,2009-02-03T05:00:00Z,29.4412,-92.0613,10.0,7.37,55.0,,'11111222,11111222,99999999' 
WAVCIS,ioos:station:WAVCIS:CSI03:3,2009-02-03T06:00:00Z,29.4412,-92.0613,10.0,6.488,54.0,,'11111222,11111222,99999999' 
WAVCIS,ioos:station:WAVCIS:CSI03:3,2009-02-03T07:00:00Z,29.4412,-92.0613,10.0,5.265,60.0,,'11111222,11111222,99999999' 
WAVCIS,ioos:station:WAVCIS:CSI03:3,2009-02-03T08:00:00Z,29.4412,-92.0613,10.0,5.711,58.0,,'11111222,11111222,99999999' 
WAVCIS,ioos:station:WAVCIS:CSI03:3,2009-02-03T09:00:00Z,29.4412,-92.0613,10.0,5.305,55.0,,'11111222,11111222,99999999' 
WAVCIS,ioos:station:WAVCIS:CSI03:3,2009-02-03T10:00:00Z,29.4412,-92.0613,10.0,4.393,55.0,,'11111222,11111222,99999999' 
WAVCIS,ioos:station:WAVCIS:CSI03:3,2009-02-03T11:00:00Z,29.4412,-92.0613,10.0,3.88,55.0,,'11111222,11111222,99999999' 
WAVCIS,ioos:station:WAVCIS:CSI03:3,2009-02-03T12:00:00Z,29.4412,-92.0613,10.0,3.709,58.0,,'11111222,11111222,99999999' 
WAVCIS,ioos:station:WAVCIS:CSI03:3,2009-02-03T13:00:00Z,29.4412,-92.0613,10.0,3.381,65.0,,'11111222,11111222,99999999' 
WAVCIS,ioos:station:WAVCIS:CSI03:3,2009-02-03T14:00:00Z,29.4412,-92.0613,10.0,2.939,91.0,,'11111222,11111222,99999999' 
WAVCIS,ioos:station:WAVCIS:CSI03:3,2009-02-03T15:00:00Z,29.4412,-92.0613,10.0,3.345,131.0,,'11111222,11111222,99999999' 
WAVCIS,ioos:station:WAVCIS:CSI03:3,2009-02-03T16:00:00Z,29.4412,-92.0613,10.0,2.728,137.0,,'11111222,11111222,99999999' 
WAVCIS,ioos:station:WAVCIS:CSI03:3,2009-02-03T17:00:00Z,29.4412,-92.0613,10.0,2.783,182.0,,'11111222,11111222,99999999' 
WAVCIS,ioos:station:WAVCIS:CSI03:3,2009-02-03T18:00:00Z,29.4412,-92.0613,10.0,2.533,202.0,,'11111222,11111222,99999999' 
WAVCIS,ioos:station:WAVCIS:CSI03:3,2009-02-03T19:00:00Z,29.4412,-92.0613,10.0,2.13,259.0,,'11111222,11111222,99999999' 
WAVCIS,ioos:station:WAVCIS:CSI03:3,2009-02-03T20:00:00Z,29.4412,-92.0613,10.0,2.526,257.0,,'11111222,11111222,99999999' 
WAVCIS,ioos:station:WAVCIS:CSI03:3,2009-02-03T21:00:00Z,29.4412,-92.0613,10.0,7.06,270.0,,'11111222,11111222,99999999' 
WAVCIS,ioos:station:WAVCIS:CSI03:3,2009-02-03T22:00:00Z,29.4412,-92.0613,10.0,7.16,278.0,,'11111222,11111222,99999999' 
WAVCIS,ioos:station:WAVCIS:CSI03:3,2009-02-03T23:00:00Z,29.4412,-92.0613,10.0,8.05,284.0,,'11111222,11111222,99999999' 
WAVCIS,ioos:station:WAVCIS:CSI03:3,2009-02-04T00:00:00Z,29.4412,-92.0613,10.0,7.42,283.0,,'11111222,11111222,99999999' 
WAVCIS,ioos:station:WAVCIS:CSI03:3,2009-02-04T01:00:00Z,29.4412,-92.0613,10.0,6.771,272.0,,'11111222,11111222,99999999' 
WAVCIS,ioos:station:WAVCIS:CSI03:3,2009-02-04T02:00:00Z,29.4412,-92.0613,10.0,6.788,282.0,,'11111222,11111222,99999999' 
WAVCIS,ioos:station:WAVCIS:CSI03:3,2009-02-04T03:00:00Z,29.4412,-92.0613,10.0,6.141,272.0,,'11111222,11111222,99999999' 
WAVCIS,ioos:station:WAVCIS:CSI03:3,2009-02-04T04:00:00Z,29.4412,-92.0613,10.0,5.548,272.0,,'11111222,11111222,99999999' 
WAVCIS,ioos:station:WAVCIS:CSI03:3,2009-02-04T05:00:00Z,29.4412,-92.0613,10.0,2.916,292.0,,'11111222,11111222,99999999' 
WAVCIS,ioos:station:WAVCIS:CSI03:3,2009-02-04T06:00:00Z,29.4412,-92.0613,10.0,4.505,4.0,,'11111222,11111222,99999999' 
WAVCIS,ioos:station:WAVCIS:CSI03:3,2009-02-04T07:00:00Z,29.4412,-92.0613,10.0,4.566,4.0,,'11111222,11111222,99999999' 
WAVCIS,ioos:station:WAVCIS:CSI03:3,2009-02-04T08:00:00Z,29.4412,-92.0613,10.0,6.199,57.0,,'11111222,11111222,99999999' 
WAVCIS,ioos:station:WAVCIS:CSI03:3,2009-02-04T09:00:00Z,29.4412,-92.0613,10.0,8.19,55.0,,'11111222,11111222,99999999' 
WAVCIS,ioos:station:WAVCIS:CSI03:3,2009-02-04T10:00:00Z,29.4412,-92.0613,10.0,7.78,55.0,,'11111222,11111222,99999999' 
WAVCIS,ioos:station:WAVCIS:CSI03:3,2009-02-04T11:00:00Z,29.4412,-92.0613,10.0,9.24,55.0,,'11111222,11111222,99999999' 
WAVCIS,ioos:station:WAVCIS:CSI03:3,2009-02-04T12:00:00Z,29.4412,-92.0613,10.0,10.1,55.0,,'11111222,11111222,99999999' 
WAVCIS,ioos:station:WAVCIS:CSI03:3,2009-02-04T13:00:00Z,29.4412,-92.0613,10.0,10.22,56.0,,'11111222,11111222,99999999' 
WAVCIS,ioos:station:WAVCIS:CSI03:3,2009-02-04T14:00:00Z,29.4412,-92.0613,10.0,10.75,58.0,,'11111222,11111222,99999999' 
WAVCIS,ioos:station:WAVCIS:CSI03:3,2009-02-04T15:00:00Z,29.4412,-92.0613,10.0,7.98,65.0,,'11111222,11111222,99999999' 
WAVCIS,ioos:station:WAVCIS:CSI03:3,2009-02-04T16:00:00Z,29.4412,-92.0613,10.0,7.63,62.0,,'11111222,11111222,99999999' 
WAVCIS,ioos:station:WAVCIS:CSI03:3,2009-02-04T17:00:00Z,29.4412,-92.0613,10.0,6.996,61.0,,'11111222,11111222,99999999' 
WAVCIS,ioos:station:WAVCIS:CSI03:3,2009-02-04T18:00:00Z,29.4412,-92.0613,10.0,5.802,56.0,,'11111222,11111222,99999999' 
WAVCIS,ioos:station:WAVCIS:CSI03:3,2009-02-04T19:00:00Z,29.4412,-92.0613,10.0,3.317,41.0,,'11111222,11111222,99999999' 
WAVCIS,ioos:station:WAVCIS:CSI03:3,2009-02-04T20:00:00Z,29.4412,-92.0613,10.0,4.087,16.0,,'11111222,11111222,99999999' 
WAVCIS,ioos:station:WAVCIS:CSI03:3,2009-02-04T21:00:00Z,29.4412,-92.0613,10.0,2.288,35.0,,'11111222,11111222,99999999' 
WAVCIS,ioos:station:WAVCIS:CSI03:3,2009-02-04T22:00:00Z,29.4412,-92.0613,10.0,2.788,28.0,,'11111222,11111222,99999999' 
WAVCIS,ioos:station:WAVCIS:CSI03:3,2009-02-04T23:00:00Z,29.4412,-92.0613,10.0,2.804,29.0,,'11111222,11111222,99999999' 
WAVCIS,ioos:station:WAVCIS:CSI03:3,2009-02-05T00:00:00Z,29.4412,-92.0613,10.0,3.492,52.0,,'11111222,11111222,99999999' 
WAVCIS,ioos:station:WAVCIS:CSI03:3,2009-02-05T01:00:00Z,29.4412,-92.0613,10.0,3.246,34.0,,'11111222,11111222,99999999' 
WAVCIS,ioos:station:WAVCIS:CSI03:3,2009-02-05T02:00:00Z,29.4412,-92.0613,10.0,3.006,44.0,,'11111222,11111222,99999999' 
WAVCIS,ioos:station:WAVCIS:CSI03:3,2009-02-05T03:00:00Z,29.4412,-92.0613,10.0,4.669,52.0,,'11111222,11111222,99999999' 
WAVCIS,ioos:station:WAVCIS:CSI03:3,2009-02-05T04:00:00Z,29.4412,-92.0613,10.0,6.645,55.0,,'11111222,11111222,99999999' 
WAVCIS,ioos:station:WAVCIS:CSI03:3,2009-02-05T05:00:00Z,29.4412,-92.0613,10.0,6.75,58.0,,'11111222,11111222,99999999' 
WAVCIS,ioos:station:WAVCIS:CSI03:3,2009-02-05T06:00:00Z,29.4412,-92.0613,10.0,5.81,58.0,,'11111222,11111222,99999999' 
WAVCIS,ioos:station:WAVCIS:CSI03:3,2009-02-05T07:00:00Z,29.4412,-92.0613,10.0,6.479,69.0,,'11111222,11111222,99999999' 
WAVCIS,ioos:station:WAVCIS:CSI03:3,2009-02-05T08:00:00Z,29.4412,-92.0613,10.0,6.87,77.0,,'11111222,11111222,99999999' 
WAVCIS,ioos:station:WAVCIS:CSI03:3,2009-02-05T09:00:00Z,29.4412,-92.0613,10.0,7.13,95.0,,'11111222,11111222,99999999' 
WAVCIS,ioos:station:WAVCIS:CSI03:3,2009-02-05T10:00:00Z,29.4412,-92.0613,10.0,6.565,108.0,,'11111222,11111222,99999999' 
WAVCIS,ioos:station:WAVCIS:CSI03:3,2009-02-05T11:00:00Z,29.4412,-92.0613,10.0,6.753,114.0,,'11111222,11111222,99999999' 
WAVCIS,ioos:station:WAVCIS:CSI03:3,2009-02-05T12:00:00Z,29.4412,-92.0613,10.0,6.788,112.0,,'11111222,11111222,99999999' 
WAVCIS,ioos:station:WAVCIS:CSI03:3,2009-02-05T13:00:00Z,29.4412,-92.0613,10.0,6.727,121.0,,'11111222,11111222,99999999' 
WAVCIS,ioos:station:WAVCIS:CSI03:3,2009-02-05T14:00:00Z,29.4412,-92.0613,10.0,5.824,118.0,,'11111222,11111222,99999999' 
WAVCIS,ioos:station:WAVCIS:CSI03:3,2009-02-05T15:00:00Z,29.4412,-92.0613,10.0,5.991,113.0,,'11111222,11111222,99999999' 
WAVCIS,ioos:station:WAVCIS:CSI03:3,2009-02-05T16:00:00Z,29.4412,-92.0613,10.0,6.462,104.0,,'11111222,11111222,99999999' 
WAVCIS,ioos:station:WAVCIS:CSI03:3,2009-02-05T17:00:00Z,29.4412,-92.0613,10.0,7.01,104.0,,'11111222,11111222,99999999' 
WAVCIS,ioos:station:WAVCIS:CSI03:3,2009-02-05T18:00:00Z,29.4412,-92.0613,10.0,7.57,108.0,,'11111222,11111222,99999999' 
WAVCIS,ioos:station:WAVCIS:CSI03:3,2009-02-05T19:00:00Z,29.4412,-92.0613,10.0,7.58,116.0,,'11111222,11111222,99999999' 
WAVCIS,ioos:station:WAVCIS:CSI03:3,2009-02-05T20:00:00Z,29.4412,-92.0613,10.0,7.39,125.0,,'11111222,11111222,99999999' 
WAVCIS,ioos:station:WAVCIS:CSI03:3,2009-02-05T21:00:00Z,29.4412,-92.0613,10.0,7.26,133.0,,'11111222,11111222,99999999' 
WAVCIS,ioos:station:WAVCIS:CSI03:3,2009-02-05T22:00:00Z,29.4412,-92.0613,10.0,7.34,137.0,,'11111222,11111222,99999999' 
WAVCIS,ioos:station:WAVCIS:CSI03:3,2009-02-05T23:00:00Z,29.4412,-92.0613,10.0,6.991,137.0,,'11111222,11111222,99999999' 
WAVCIS,ioos:station:WAVCIS:CSI03:3,2009-02-06T00:00:00Z,29.4412,-92.0613,10.0,7.38,138.0,,'11111222,11111222,99999999' 
WAVCIS,ioos:station:WAVCIS:CSI03:3,2009-02-06T01:00:00Z,29.4412,-92.0613,10.0,7.82,139.0,,'11111222,11111222,99999999' 
WAVCIS,ioos:station:WAVCIS:CSI03:3,2009-02-06T02:00:00Z,29.4412,-92.0613,10.0,7.9,139.0,,'11111222,11111222,99999999' 
WAVCIS,ioos:station:WAVCIS:CSI03:3,2009-02-06T03:00:00Z,29.4412,-92.0613,10.0,7.63,137.0,,'11111222,11111222,99999999' 
WAVCIS,ioos:station:WAVCIS:CSI03:3,2009-02-06T04:00:00Z,29.4412,-92.0613,10.0,7.94,139.0,,'11111222,11111222,99999999' 
WAVCIS,ioos:station:WAVCIS:CSI03:3,2009-02-06T05:00:00Z,29.4412,-92.0613,10.0,6.76,138.0,,'11111222,11111222,99999999' 
WAVCIS,ioos:station:WAVCIS:CSI03:3,2009-02-06T06:00:00Z,29.4412,-92.0613,10.0,6.338,134.0,,'11111222,11111222,99999999' 
WAVCIS,ioos:station:WAVCIS:CSI03:3,2009-02-06T07:00:00Z,29.4412,-92.0613,10.0,5.625,129.0,,'11111222,11111222,99999999' 
WAVCIS,ioos:station:WAVCIS:CSI03:3,2009-02-06T08:00:00Z,29.4412,-92.0613,10.0,5.849,128.0,,'11111222,11111222,99999999' 
WAVCIS,ioos:station:WAVCIS:CSI03:3,2009-02-06T09:00:00Z,29.4412,-92.0613,10.0,5.531,131.0,,'11111222,11111222,99999999' 
WAVCIS,ioos:station:WAVCIS:CSI03:3,2009-02-06T10:00:00Z,29.4412,-92.0613,10.0,5.941,135.0,,'11111222,11111222,99999999' 
WAVCIS,ioos:station:WAVCIS:CSI03:3,2009-02-06T11:00:00Z,29.4412,-92.0613,10.0,5.655,139.0,,'11111222,11111222,99999999' 
WAVCIS,ioos:station:WAVCIS:CSI03:3,2009-02-06T12:00:00Z,29.4412,-92.0613,10.0,5.97,139.0,,'11111222,11111222,99999999' 
WAVCIS,ioos:station:WAVCIS:CSI03:3,2009-02-06T13:00:00Z,29.4412,-92.0613,10.0,5.207,139.0,,'11111222,11111222,99999999' 
WAVCIS,ioos:station:WAVCIS:CSI03:3,2009-02-06T14:00:00Z,29.4412,-92.0613,10.0,5.609,145.0,,'11111222,11111222,99999999' 
WAVCIS,ioos:station:WAVCIS:CSI03:3,2009-02-06T15:00:00Z,29.4412,-92.0613,10.0,5.666,154.0,,'11111222,11111222,99999999' 
WAVCIS,ioos:station:WAVCIS:CSI03:3,2009-02-06T16:00:00Z,29.4412,-92.0613,10.0,5.098,155.0,,'11111222,11111222,99999999' 
WAVCIS,ioos:station:WAVCIS:CSI03:3,2009-02-06T17:00:00Z,29.4412,-92.0613,10.0,4.687,152.0,,'11111222,11111222,99999999' 
WAVCIS,ioos:station:WAVCIS:CSI03:3,2009-02-06T18:00:00Z,29.4412,-92.0613,10.0,4.446,141.0,,'11111222,11111222,99999999' 
WAVCIS,ioos:station:WAVCIS:CSI03:3,2009-02-06T19:00:00Z,29.4412,-92.0613,10.0,4.366,138.0,,'11111222,11111222,99999999' 
WAVCIS,ioos:station:WAVCIS:CSI03:3,2009-02-06T20:00:00Z,29.4412,-92.0613,10.0,4.565,139.0,,'11111222,11111222,99999999' 
WAVCIS,ioos:station:WAVCIS:CSI03:3,2009-02-06T21:00:00Z,29.4412,-92.0613,10.0,4.825,136.0,,'11111222,11111222,99999999' 
WAVCIS,ioos:station:WAVCIS:CSI03:3,2009-02-06T22:00:00Z,29.4412,-92.0613,10.0,5.335,136.0,,'11111222,11111222,99999999' 
WAVCIS,ioos:station:WAVCIS:CSI03:3,2009-02-06T23:00:00Z,29.4412,-92.0613,10.0,5.159,139.0,,'11111222,11111222,99999999' 
WAVCIS,ioos:station:WAVCIS:CSI03:3,2009-02-07T00:00:00Z,29.4412,-92.0613,10.0,5.258,136.0,,'11111222,11111222,99999999' 
WAVCIS,ioos:station:WAVCIS:CSI03:3,2009-02-07T01:00:00Z,29.4412,-92.0613,10.0,6.158,136.0,,'11111222,11111222,99999999' 
WAVCIS,ioos:station:WAVCIS:CSI03:3,2009-02-07T02:00:00Z,29.4412,-92.0613,10.0,6.769,137.0,,'11111222,11111222,99999999' 
WAVCIS,ioos:station:WAVCIS:CSI03:3,2009-02-07T03:00:00Z,29.4412,-92.0613,10.0,5.993,142.0,,'11111222,11111222,99999999' 
WAVCIS,ioos:station:WAVCIS:CSI03:3,2009-02-07T04:00:00Z,29.4412,-92.0613,10.0,6.102,142.0,,'11111222,11111222,99999999' 
WAVCIS,ioos:station:WAVCIS:CSI03:3,2009-02-07T05:00:00Z,29.4412,-92.0613,10.0,5.885,144.0,,'11111222,11111222,99999999' 
WAVCIS,ioos:station:WAVCIS:CSI03:3,2009-02-07T06:00:00Z,29.4412,-92.0613,10.0,5.991,144.0,,'11111222,11111222,99999999' 
WAVCIS,ioos:station:WAVCIS:CSI03:3,2009-02-07T07:00:00Z,29.4412,-92.0613,10.0,5.85,143.0,,'11111222,11111222,99999999' 
WAVCIS,ioos:station:WAVCIS:CSI03:3,2009-02-07T08:00:00Z,29.4412,-92.0613,10.0,6.015,159.0,,'11111222,11111222,99999999' 
WAVCIS,ioos:station:WAVCIS:CSI03:3,2009-02-07T09:00:00Z,29.4412,-92.0613,10.0,4.182,178.0,,'11111222,11111222,99999999' 
WAVCIS,ioos:station:WAVCIS:CSI03:3,2009-02-07T10:00:00Z,29.4412,-92.0613,10.0,6.259,163.0,,'11111222,11111222,99999999' 
WAVCIS,ioos:station:WAVCIS:CSI03:3,2009-02-07T11:00:00Z,29.4412,-92.0613,10.0,6.501,164.0,,'11111222,11111222,99999999' 
WAVCIS,ioos:station:WAVCIS:CSI03:3,2009-02-07T12:00:00Z,29.4412,-92.0613,10.0,6.508,162.0,,'11111222,11111222,99999999' 
WAVCIS,ioos:station:WAVCIS:CSI03:3,2009-02-07T13:00:00Z,29.4412,-92.0613,10.0,5.639,154.0,,'11111222,11111222,99999999' 
WAVCIS,ioos:station:WAVCIS:CSI03:3,2009-02-07T14:00:00Z,29.4412,-92.0613,10.0,6.744,146.0,,'11111222,11111222,99999999' 
WAVCIS,ioos:station:WAVCIS:CSI03:3,2009-02-07T15:00:00Z,29.4412,-92.0613,10.0,5.66,154.0,,'11111222,11111222,99999999' 
WAVCIS,ioos:station:WAVCIS:CSI03:3,2009-02-07T16:00:00Z,29.4412,-92.0613,10.0,4.74,154.0,,'11111222,11111222,99999999' 
WAVCIS,ioos:station:WAVCIS:CSI03:3,2009-02-07T17:00:00Z,29.4412,-92.0613,10.0,6.665,157.0,,'11111222,11111222,99999999' 
WAVCIS,ioos:station:WAVCIS:CSI03:3,2009-02-07T18:00:00Z,29.4412,-92.0613,10.0,5.612,142.0,,'11111222,11111222,99999999' 
WAVCIS,ioos:station:WAVCIS:CSI03:3,2009-02-07T19:00:00Z,29.4412,-92.0613,10.0,4.583,136.0,,'11111222,11111222,99999999' 
WAVCIS,ioos:station:WAVCIS:CSI03:3,2009-02-07T20:00:00Z,29.4412,-92.0613,10.0,5.069,129.0,,'11111222,11111222,99999999' 
WAVCIS,ioos:station:WAVCIS:CSI03:3,2009-02-07T21:00:00Z,29.4412,-92.0613,10.0,5.612,127.0,,'11111222,11111222,99999999' 
WAVCIS,ioos:station:WAVCIS:CSI03:3,2009-02-07T22:00:00Z,29.4412,-92.0613,10.0,5.609,123.0,,'11111222,11111222,99999999' 
WAVCIS,ioos:station:WAVCIS:CSI03:3,2009-02-07T23:00:00Z,29.4412,-92.0613,10.0,5.221,120.0,,'11111222,11111222,99999999' 
WAVCIS,ioos:station:WAVCIS:CSI03:3,2009-02-08T00:00:00Z,29.4412,-92.0613,10.0,5.605,118.0,,'11111222,11111222,99999999' 
WAVCIS,ioos:station:WAVCIS:CSI03:3,2009-02-08T01:00:00Z,29.4412,-92.0613,10.0,5.603,131.0,,'11111222,11111222,99999999' 
WAVCIS,ioos:station:WAVCIS:CSI03:3,2009-02-08T02:00:00Z,29.4412,-92.0613,10.0,6.553,140.0,,'11111222,11111222,99999999' 
WAVCIS,ioos:station:WAVCIS:CSI03:3,2009-02-08T03:00:00Z,29.4412,-92.0613,10.0,6.63,142.0,,'11111222,11111222,99999999' 
WAVCIS,ioos:station:WAVCIS:CSI03:3,2009-02-08T04:00:00Z,29.4412,-92.0613,10.0,6.573,141.0,,'11111222,11111222,99999999' 
WAVCIS,ioos:station:WAVCIS:CSI03:3,2009-02-08T05:00:00Z,29.4412,-92.0613,10.0,5.944,141.0,,'11111222,11111222,99999999' 
WAVCIS,ioos:station:WAVCIS:CSI03:3,2009-02-08T06:00:00Z,29.4412,-92.0613,10.0,5.99,140.0,,'11111222,11111222,99999999' 
WAVCIS,ioos:station:WAVCIS:CSI03:3,2009-02-08T07:00:00Z,29.4412,-92.0613,10.0,5.661,134.0,,'11111222,11111222,99999999' 
WAVCIS,ioos:station:WAVCIS:CSI03:3,2009-02-08T08:00:00Z,29.4412,-92.0613,10.0,5.821,124.0,,'11111222,11111222,99999999' 
WAVCIS,ioos:station:WAVCIS:CSI03:3,2009-02-08T09:00:00Z,29.4412,-92.0613,10.0,6.474,122.0,,'11111222,11111222,99999999' 
WAVCIS,ioos:station:WAVCIS:CSI03:3,2009-02-08T10:00:00Z,29.4412,-92.0613,10.0,6.209,116.0,,'11111222,11111222,99999999' 
WAVCIS,ioos:station:WAVCIS:CSI03:3,2009-02-08T11:00:00Z,29.4412,-92.0613,10.0,6.564,116.0,,'11111222,11111222,99999999' 
WAVCIS,ioos:station:WAVCIS:CSI03:3,2009-02-08T12:00:00Z,29.4412,-92.0613,10.0,7.33,117.0,,'11111222,11111222,99999999' 
WAVCIS,ioos:station:WAVCIS:CSI03:3,2009-02-08T13:00:00Z,29.4412,-92.0613,10.0,7.79,118.0,,'11111222,11111222,99999999' 
WAVCIS,ioos:station:WAVCIS:CSI03:3,2009-02-08T14:00:00Z,29.4412,-92.0613,10.0,8.19,120.0,,'11111222,11111222,99999999' 
WAVCIS,ioos:station:WAVCIS:CSI03:3,2009-02-08T15:00:00Z,29.4412,-92.0613,10.0,8.92,121.0,,'11111222,11111222,99999999' 
WAVCIS,ioos:station:WAVCIS:CSI03:3,2009-02-08T16:00:00Z,29.4412,-92.0613,10.0,9.21,127.0,,'11111222,11111222,99999999' 
WAVCIS,ioos:station:WAVCIS:CSI03:3,2009-02-08T17:00:00Z,29.4412,-92.0613,10.0,9.39,134.0,,'11111222,11111222,99999999' 
WAVCIS,ioos:station:WAVCIS:CSI03:3,2009-02-08T18:00:00Z,29.4412,-92.0613,10.0,8.43,138.0,,'11111222,11111222,99999999' 
WAVCIS,ioos:station:WAVCIS:CSI03:3,2009-02-08T19:00:00Z,29.4412,-92.0613,10.0,8.08,143.0,,'11111222,11111222,99999999' 
WAVCIS,ioos:station:WAVCIS:CSI03:3,2009-02-08T20:00:00Z,29.4412,-92.0613,10.0,7.21,142.0,,'11111222,11111222,99999999' 
WAVCIS,ioos:station:WAVCIS:CSI03:3,2009-02-08T21:00:00Z,29.4412,-92.0613,10.0,8.21,140.0,,'11111222,11111222,99999999' 
WAVCIS,ioos:station:WAVCIS:CSI03:3,2009-02-08T22:00:00Z,29.4412,-92.0613,10.0,7.9,138.0,,'11111222,11111222,99999999' 
WAVCIS,ioos:station:WAVCIS:CSI03:3,2009-02-08T23:00:00Z,29.4412,-92.0613,10.0,7.72,137.0,,'11111222,11111222,99999999' 
WAVCIS,ioos:station:WAVCIS:CSI03:3,2009-02-09T00:00:00Z,29.4412,-92.0613,10.0,8.51,133.0,,'11111222,11111222,99999999' 
WAVCIS,ioos:station:WAVCIS:CSI03:3,2009-02-09T01:00:00Z,29.4412,-92.0613,10.0,8.39,129.0,,'11111222,11111222,99999999' 
WAVCIS,ioos:station:WAVCIS:CSI03:3,2009-02-09T02:00:00Z,29.4412,-92.0613,10.0,8.5,129.0,,'11111222,11111222,99999999' 
WAVCIS,ioos:station:WAVCIS:CSI03:3,2009-02-09T03:00:00Z,29.4412,-92.0613,10.0,8.83,129.0,,'11111222,11111222,99999999' 
WAVCIS,ioos:station:WAVCIS:CSI03:3,2009-02-09T04:00:00Z,29.4412,-92.0613,10.0,7.74,129.0,,'11111222,11111222,99999999' 
WAVCIS,ioos:station:WAVCIS:CSI03:3,2009-02-09T05:00:00Z,29.4412,-92.0613,10.0,9.29,130.0,,'11111222,11111222,99999999' 